Weather in Kurunegala

Sri Lanka     7°28′53″N   80°22′14″E
temp.,
°C
wind,
m/s
gust,
m/s
humid.,
%
clouds,
%
prec.,
mm/h
press.,
hPa
HPBL,
m
1 march, mon
mon123:30+22ese11965 0.0 101224
02:30+21ene119741 0.0 101026
05:30+20e119833 0.0 101123
08:30+26ese116711 0.0 1013309
11:30+37se03256 0.0 10141776
14:30+36nne43210 0.0 10102636
17:30+31nne25360 0.0 1010865
20:30+22ssw11820 0.0 101357
2 march, tue
tue223:30+21ese12870 0.0 101436
02:30+19e12840 0.0 101126
05:30+18e12810 0.0 101124
08:30+25e12470 0.0 1013284
11:30+36nne25152 0.0 10131975
14:30+36nne452126 0.0 10092026
17:30+32nne253214 0.0 10091133
20:30+23s26750 0.0 1012194
3 march, wed
wed323:30+21e12849 0.0 101246
02:30+19e12856 0.0 100924
05:30+17e11913 0.0 100923
08:30+25ese12560 0.0 1012318
11:30+36nne13230 0.0 10111517
14:30+36nne43220 0.0 10082276
17:30+31ene13410 0.0 1008603
20:30+23sse27730 0.0 1011310
4 march, thu
thu423:30+21e12800 0.0 101154
02:30+20e12860 0.0 100947
05:30+19e12890 0.0 100927
08:30+27ese12580 0.0 1012364
11:30+36ssw12290 0.0 10121825
14:30+36w22270 0.0 10082496
17:30+29wnw365218 0.0 10091100
20:30+25wnw137599 0.0 1011212
5 march, fri
fri523:30+22ese128557 0.0 101234
02:30+21ese118974 0.0 101024
05:30+20e119285 0.0 101123
08:30+27e1160100 0.0 1013351
11:30+36nw113373 0.0 10131704
14:30+37wnw33297 0.0 10092789
17:30+30w354929 0.0 1009684
20:30+25n117397 0.0 101281